Terug naar catalogus

STARLINK-37013

ActiefCommunicatieSSO
NORAD 68162·PAYLOAD·🇺🇸 United States

Gelanceerd Mar 13, 2026 vanaf Vandenberg Space Force Base

Loading…

Volgende Passages (komende 24 uur)

TLE

VersSource: CelesTrak SupGP

Epoch: Sep 14, 2026, 22:47 UTC

1 68162C 26049W   26257.94979167  .00070522  00000+0  21903-2 0  2577
2 68162  97.2837 277.9747 0001533  85.1694 131.0201 15.33386274    10

Volg STARLINK-37013 in realtime met AllMySat

Download on the App Store